Temperature
9 8 9 9 9 9 9 9 9 9 9 9 9 9 9 9 10 10 10 10 10 11 11 11 11 11 11 11 11 11 11 10 10 10 10 10 10 9 9 9 9 9 9
8 8 8 8 8 8 8 8 9 9 9 9 9 9 9 9 9 9 9 9 10 10 10 10 10 10 10 10 10 10 10 10 10 10 10 9 9 9 9 9 9 9 8
8 8 8 8 8 8 8 8 8 8 8 8 8 8 8 8 9 9 9 9 9 9 9 10 10 10 10 10 10 10 10 10 10 9 9 9 8 8 8 8 8 8 8
8 7 7 7 7 7 7 7 7 7 8 8 8 8 8 8 8 8 8 8 9 9 9 9 9 9 9 9 10 10 10 9 9 9 9 8 8 8 7 8 8 8 8
7 7 7 7 7 7 7 7 7 7 7 7 7 7 7 7 7 7 7 8 8 8 8 8 9 9 9 9 9 9 9 9 9 8 8 8 8 7 7 7 7 7 8
7 7 7 7 7 7 6 6 6 7 7 7 7 7 7 7 7 7 7 7 8 8 8 8 8 8 8 8 8 8 8 8 8 8 8 7 7 7 7 7 7 7 7
6 6 6 6 6 6 6 6 6 6 6 6 6 6 6 6 6 7 7 7 7 7 7 8 8 8 8 8 8 8 8 7 7 7 7 7 7 7 7 6 6 6 6
6 6 6 6 6 6 6 5 6 6 6 6 6 6 6 6 6 6 6 6 7 7 7 7 7 7 7 7 7 7 7 7 7 7 7 7 7 6 6 6 6 5 5
6 6 5 5 6 6 6 5 5 5 5 5 5 5 5 5 5 6 6 6 6 6 6 6 6 7 7 7 7 7 7 6 6 6 6 6 6 6 6 6 6 5 4
5 5 5 5 5 5 5 5 5 5 5 5 5 5 5 5 5 5 5 5 6 6 6 6 6 6 6 6 6 6 6 6 6 6 5 5 5 5 5 5 5 5 5
4 4 4 5 5 5 5 5 5 5 5 5 5 5 5 5 5 5 5 5 5 5 5 6 6 6 5 6 6 6 5 5 5 5 5 5 5 5 5 5 5 5 4
4 4 4 4 4 4 4 4 4 4 4 4 4 4 4 4 4 4 4 5 5 5 5 5 5 5 5 5 5 5 5 5 5 5 5 5 5 5 5 5 5 4 4
4 3 3 4 4 4 4 4 4 4 4 4 4 4 4 4 4 4 4 4 4 4 4 4 5 5 5 4 4 5 4 4 4 4 4 4 4 4 4 4 4 4 4
3 3 3 3 3 3 4 4 4 4 4 4 4 4 4 4 4 3 3 3 4 4 4 4 4 4 4 4 4 4 4 4 4 4 4 4 4 4 4 4 4 4 3
2 2 2 2 3 3 3 3 3 3 3 3 3 3 3 3 3 3 3 3 3 3 3 3 3 3 3 3 3 4 4 3 3 3 3 3 3 3 3 3 3 3 3
2 2 2 2 2 2 3 3 3 3 3 3 3 3 3 3 3 2 2 2 2 3 3 3 3 3 3 3 3 3 3 3 3 3 3 3 3 3 3 3 3 2 2
1 1 1 1 2 2 2 2 3 3 2 2 2 2 2 2 2 2 2 2 2 2 2 2 2 2 2 2 2 2 2 2 2 2 3 3 3 2 2 2 2 2 2
1 1 1 1 1 1 2 2 2 2 2 2 2 2 2 2 1 1 1 1 1 1 1 2 2 2 2 2 2 2 2 2 2 2 2 2 2 2 2 2 2 2 2
0 0 0 1 1 1 1 1 2 1 1 1 1 1 1 1 1 1 1 1 1 1 1 1 1 1 1 1 1 1 1 1 1 1 1 1 1 2 1 1 2 2 2
-0 -0 -0 0 0 1 1 1 1 1 1 1 1 1 1 1 1 1 0 0 0 0 0 0 0 0 0 0 1 1 1 1 1 1 1 1 1 1 1 1 1 1 1
-1 -1 -0 -0 -0 -0 0 0 0 0 0 0 0 0 0 0 0 0 -0 -0 -0 -0 -0 -0 -0 -0 -0 -0 0 0 0 0 -0 -0 0 0 0 0 0 0 0 1 1
-1 -1 -1 -1 -1 -1 -0 -0 -0 -0 -0 -0 -0 -0 -0 -0 -0 -0 -0 -0 -1 -1 -1 -1 -1 -1 -1 -1 -1 -0 -0 -1 -1 -0 -0 -0 -0 0 0 -0 0 0 0
-1 -1 -1 -1 -1 -1 -1 -1 -1 -1 -1 -1 -1 -1 -1 -1 -1 -1 -1 -1 -1 -1 -1 -1 -1 -1 -1 -1 -1 -1 -1 -1 -1 -1 -1 -1 -1 -0 -0 -0 -0 -0 -0
-2 -2 -2 -2 -1 -1 -1 -1 -1 -1 -1 -1 -1 -1 -1 -1 -2 -2 -2 -2 -2 -2 -2 -2 -2 -2 -2 -2 -2 -2 -2 -1 -1 -1 -1 -1 -1 -1 -1 -1 -1 -1 -1
-2 -2 -2 -2 -2 -2 -2 -2 -2 -2 -2 -2 -2 -2 -2 -2 -2 -2 -2 -2 -2 -2 -3 -3 -3 -3 -3 -3 -3 -2 -2 -2 -2 -2 -1 -1 -1 -1 -1 -1 -1 -1 -1
-2 -3 -3 -3 -3 -2 -2 -2 -2 -2 -2 -3 -3 -3 -3 -3 -3 -3 -3 -3 -3 -3 -3 -3 -3 -3 -3 -3 -3 -3 -2 -2 -2 -2 -2 -2 -2 -2 -2 -2 -2 -2 -2
Wind_Speed
3 3 4 4 4 4 4 4 3 3 3 2 1 2 2 2 2 4 5 5 5 5 5 3 3 2 1 1 1 1 1 1 1 1 1 1 0 1 1 1 1 0 1
2 2 4 3 3 3 3 3 3 3 3 2 1 1 1 2 2 3 4 5 5 5 4 3 2 2 1 2 2 2 1 1 1 1 1 0 1 1 0 0 0 1 1
2 1 3 3 3 3 3 3 2 3 2 3 2 2 3 3 3 3 2 4 5 4 4 3 3 2 2 1 1 2 1 0 0 2 2 1 1 1 1 1 0 0 1
2 2 2 3 2 2 3 3 3 3 2 3 3 3 3 2 1 1 1 2 4 4 4 4 3 3 2 2 1 1 1 1 1 0 1 1 1 1 1 2 1 1 1
2 2 2 2 2 2 3 2 2 3 3 3 3 3 2 2 2 2 2 2 3 3 3 3 3 2 2 2 2 1 1 1 1 0 0 0 1 0 1 2 2 2 2
2 2 2 3 2 3 3 2 2 2 2 3 3 3 3 2 2 2 2 1 1 2 3 3 2 2 2 2 2 1 1 1 1 1 1 1 0 1 0 2 3 3 3
1 2 2 2 2 2 2 2 2 2 2 2 2 2 2 2 2 1 1 1 1 1 1 2 1 1 1 2 2 1 1 1 1 0 0 0 1 1 1 1 2 3 3
1 1 1 1 1 2 2 1 2 2 2 2 2 2 1 1 1 1 0 0 0 0 1 1 1 1 1 2 2 1 1 1 1 1 1 1 1 1 0 0 1 3 3
2 1 1 1 1 1 1 2 2 2 2 2 1 2 1 1 1 1 1 1 1 1 1 1 1 1 1 1 1 1 1 0 0 1 1 1 1 0 1 1 1 1 3
3 3 2 1 0 1 1 2 2 2 2 2 1 1 1 1 1 1 1 1 1 1 1 1 0 0 1 1 0 1 1 1 1 1 1 1 1 1 1 1 2 2 2
3 3 3 2 1 1 2 2 2 2 2 2 1 1 1 1 1 0 1 1 1 1 0 1 0 0 0 0 0 1 1 1 1 1 1 2 2 1 1 1 2 2 2
3 2 2 2 2 1 1 1 2 2 1 1 1 1 1 1 1 1 1 1 1 1 1 1 0 0 0 1 1 1 1 1 1 1 1 2 2 2 2 2 2 3 3
3 3 3 2 2 1 1 1 1 1 1 1 1 1 1 1 1 1 1 1 1 2 1 1 1 1 1 1 1 1 1 1 1 1 1 1 2 2 2 3 3 3 3
3 3 3 3 2 1 1 1 1 1 1 1 1 1 0 0 1 1 1 2 1 1 1 1 1 1 1 1 1 1 1 2 1 1 1 1 1 2 3 3 3 3 3
4 3 3 3 3 2 1 1 1 1 1 1 1 0 0 0 1 1 1 2 2 2 2 1 1 1 1 1 1 1 2 2 2 1 1 1 2 3 3 3 3 3 3
4 4 4 4 4 3 2 1 1 1 1 0 0 0 1 1 1 1 1 2 2 2 1 1 2 1 1 1 2 1 1 2 2 2 2 2 2 3 4 5 5 4 3
4 4 4 4 4 3 2 0 1 1 1 1 1 0 0 1 1 2 2 2 2 2 1 2 2 2 2 2 3 3 1 2 2 2 2 2 2 3 2 4 5 5 5
4 4 3 4 3 2 2 1 1 1 0 0 1 1 1 1 1 1 2 2 2 2 1 2 2 2 2 3 3 3 2 1 2 2 2 2 2 3 3 3 4 4 4
3 3 3 3 3 2 2 1 1 1 1 1 1 1 1 1 1 2 2 2 2 2 2 1 2 2 2 3 3 2 1 1 2 2 2 2 2 4 5 4 4 5 4
3 2 3 3 3 3 1 1 1 1 1 1 2 1 1 1 1 2 2 2 2 2 2 2 2 2 2 3 3 2 1 1 2 2 2 3 3 4 4 3 3 5 5
3 3 3 3 3 3 2 2 2 1 2 1 2 2 1 1 1 1 1 2 2 1 1 2 2 2 2 3 3 3 1 1 2 2 2 2 5 6 6 5 4 6 6
3 3 3 3 3 3 2 2 2 2 2 1 2 2 2 1 1 1 1 1 1 1 1 2 2 1 2 2 3 4 4 4 2 3 2 3 6 7 7 5 6 7 6
2 2 2 2 3 3 2 2 2 2 2 1 2 2 2 1 1 1 1 1 1 1 1 1 2 2 2 2 4 5 5 6 3 3 4 6 6 6 5 6 6 5 3
2 2 2 2 3 3 2 2 2 2 2 1 2 2 2 2 2 1 1 1 1 1 1 2 2 2 2 2 2 2 3 4 4 3 4 6 6 5 5 5 4 3 3
1 1 1 2 2 2 2 2 2 2 2 2 2 2 2 2 2 2 1 1 1 2 2 2 2 2 3 3 5 4 3 3 3 4 2 2 2 2 3 3 3 3 3
1 2 2 2 2 3 2 2 2 2 2 2 2 2 2 2 2 2 3 3 3 4 4 4 4 3 4 6 7 7 7 6 6 4 2 2 2 3 3 3 3 3 3
Wind_Direction
93 88 89 96 108 103 106 107 92 66 63 60 66 74 55 55 57 52 48 50 55 49 47 46 47 40 94 108 102 44 81 94 94 71 15 321 204 112 105 93 67 60 45
105 101 101 100 105 108 109 108 104 93 79 68 55 109 101 82 70 55 51 49 55 53 48 44 42 22 56 84 86 91 59 72 82 97 101 2 338 334 325 105 104 360 15
138 114 125 123 106 108 104 94 98 92 79 71 70 74 63 56 53 51 48 47 56 53 47 38 35 20 32 76 84 94 98 149 77 85 104 116 231 304 276 252 240 347 2
119 109 100 111 117 111 103 96 91 82 73 83 91 92 89 80 48 59 57 42 58 54 48 44 41 31 18 15 48 76 68 124 171 357 35 113 141 149 294 285 270 282 304
92 86 81 109 104 105 104 106 101 87 76 75 92 98 87 63 63 64 62 48 49 52 49 46 42 33 13 3 360 41 59 90 142 135 37 353 340 149 204 279 293 299 270
73 75 58 80 83 98 99 105 110 94 84 75 80 87 88 74 76 71 60 42 45 39 38 45 43 31 22 14 359 6 39 67 88 73 89 142 173 263 266 267 286 291 282
67 74 66 73 75 98 98 109 119 107 94 80 69 65 79 99 103 87 73 52 31 18 359 29 28 35 28 20 4 9 8 18 42 47 245 218 262 283 302 295 296 299 294
75 74 79 89 87 106 118 120 118 104 94 90 77 64 50 70 73 57 36 25 331 318 0 21 8 10 25 11 0 342 327 10 5 354 350 322 283 307 310 274 314 312 301
36 59 82 94 106 103 122 139 133 108 99 99 105 95 74 48 41 12 18 20 359 351 6 2 26 14 14 356 345 297 225 213 260 306 319 315 310 287 284 286 236 246 288
24 23 33 39 79 116 126 123 116 111 100 98 101 78 65 62 52 40 15 349 328 341 347 333 35 37 6 360 32 316 264 212 226 270 290 313 325 337 300 261 267 256 256
13 8 6 17 33 74 104 126 125 108 108 114 90 71 51 14 8 27 336 310 315 323 296 259 151 141 84 359 178 308 321 318 316 316 322 327 333 323 317 286 267 271 267
4 11 9 16 34 67 73 106 134 127 115 120 98 79 52 20 7 353 331 325 318 318 307 294 189 222 222 260 227 249 304 274 284 299 314 311 322 318 305 298 286 278 276
6 10 14 14 19 59 66 95 106 114 105 108 106 86 46 26 351 336 323 311 303 311 317 309 226 228 228 233 245 223 283 274 269 287 272 294 319 310 305 302 298 300 298
2 7 3 358 357 14 40 68 72 92 96 105 107 107 118 348 318 317 315 306 299 298 292 292 258 227 225 212 246 238 283 282 277 286 286 289 296 299 306 303 310 315 311
359 4 356 351 355 5 28 52 60 61 84 109 119 120 9 13 337 326 325 323 316 309 290 297 282 246 223 232 236 245 278 274 266 280 285 289 298 306 304 308 307 308 305
348 352 355 351 350 350 356 23 37 36 28 92 158 98 39 14 346 323 317 317 312 308 304 292 282 258 262 276 282 291 277 276 266 272 286 291 282 306 316 315 319 318 302
341 347 348 346 340 337 342 3 60 38 7 4 6 33 358 328 328 332 332 311 302 303 291 288 293 278 258 265 282 294 289 273 262 258 266 294 306 317 307 318 325 321 317
339 337 338 337 333 340 351 18 57 85 329 329 323 327 324 316 318 318 311 310 310 301 290 290 290 288 268 268 283 298 298 283 277 255 246 269 289 295 315 321 315 311 307
339 331 329 325 333 347 354 20 35 41 18 327 322 319 323 325 318 311 308 313 319 308 302 294 283 280 272 275 283 302 288 283 295 294 268 264 274 294 318 320 310 309 311
346 348 350 349 351 348 3 31 34 31 338 319 317 319 313 292 288 294 307 315 320 311 311 303 288 279 275 279 283 301 289 290 300 301 292 280 290 298 307 302 298 299 305
356 3 1 357 343 346 19 36 30 352 330 337 330 326 319 302 296 306 314 318 321 322 320 315 308 292 291 299 298 304 308 297 299 297 297 296 308 307 300 302 287 292 307
0 3 4 355 351 1 24 22 350 335 347 348 329 324 328 333 339 325 324 322 323 319 314 323 324 324 323 318 310 313 312 316 295 291 296 301 307 307 304 299 304 312 317
347 353 358 352 354 2 11 354 330 341 351 349 331 327 331 336 333 327 324 321 320 311 310 319 317 326 334 322 319 318 318 313 305 302 308 311 309 305 301 300 308 311 300
333 336 345 348 344 350 355 343 340 345 353 346 331 334 343 342 350 353 340 329 325 320 312 307 306 309 311 312 323 325 323 318 314 311 309 312 310 305 304 309 306 295 284
321 324 319 320 324 341 352 354 358 2 356 348 340 342 349 342 342 338 333 324 307 289 290 281 282 296 298 300 312 316 308 305 298 309 304 304 311 312 314 309 304 306 304
317 329 325 324 329 343 349 353 0 360 353 343 341 340 338 334 334 333 340 332 311 308 309 307 301 298 296 306 315 317 315 314 313 312 293 295 299 300 302 303 304 304 302
Height
1492 1493 1494 1495 1496 1497 1498 1499 1500 1501 1501 1502 1502 1502 1503 1504 1505 1506 1507 1508 1509 1509 1510 1511 1512 1513 1515 1516 1517 1518 1519 1520 1521 1521 1521 1522 1523 1523 1523 1523 1522 1522 1521
1492 1492 1493 1494 1495 1496 1497 1497 1498 1499 1500 1500 1500 1501 1502 1503 1504 1505 1506 1507 1508 1508 1509 1509 1510 1512 1513 1514 1515 1516 1517 1517 1518 1519 1519 1520 1521 1521 1521 1520 1520 1519 1519
1491 1492 1492 1493 1494 1495 1496 1497 1497 1498 1498 1499 1500 1500 1501 1502 1503 1504 1504 1506 1507 1508 1508 1508 1509 1510 1511 1512 1513 1514 1515 1515 1516 1517 1518 1518 1518 1518 1518 1518 1518 1517 1516
1491 1491 1492 1492 1494 1495 1495 1496 1496 1497 1497 1498 1499 1498 1499 1501 1502 1502 1503 1504 1505 1506 1507 1507 1508 1509 1509 1510 1511 1511 1512 1513 1513 1514 1515 1517 1516 1516 1515 1515 1515 1514 1514
1491 1491 1492 1492 1493 1494 1494 1495 1495 1496 1496 1497 1497 1498 1498 1500 1500 1501 1502 1503 1504 1505 1506 1506 1506 1507 1508 1508 1509 1509 1510 1510 1511 1512 1512 1513 1514 1514 1513 1512 1511 1511 1511
1491 1491 1492 1492 1492 1493 1493 1494 1494 1495 1496 1496 1496 1497 1497 1498 1499 1499 1500 1501 1502 1503 1504 1505 1505 1505 1506 1506 1507 1507 1508 1508 1509 1510 1510 1510 1511 1511 1511 1510 1508 1507 1507
1491 1491 1491 1491 1491 1491 1492 1492 1493 1494 1494 1494 1495 1495 1496 1497 1498 1498 1499 1500 1500 1501 1502 1502 1503 1503 1504 1504 1504 1505 1506 1506 1506 1507 1508 1508 1508 1509 1508 1508 1506 1505 1504
1490 1490 1490 1490 1490 1491 1491 1491 1492 1492 1492 1493 1493 1494 1496 1496 1496 1497 1498 1498 1499 1499 1500 1500 1501 1501 1501 1502 1502 1503 1503 1503 1504 1505 1506 1506 1506 1506 1506 1505 1504 1502 1501
1489 1489 1489 1489 1489 1489 1490 1491 1491 1491 1491 1492 1493 1493 1494 1495 1495 1496 1496 1497 1498 1498 1498 1498 1499 1499 1499 1500 1500 1500 1501 1501 1502 1503 1503 1503 1503 1503 1503 1503 1503 1503 1499
1489 1489 1489 1488 1488 1488 1489 1489 1490 1490 1490 1491 1491 1492 1493 1494 1494 1494 1494 1495 1496 1496 1496 1497 1496 1497 1498 1498 1498 1498 1498 1498 1499 1500 1501 1501 1500 1500 1500 1500 1500 1500 1498
1489 1488 1488 1487 1487 1487 1487 1488 1488 1489 1489 1490 1490 1490 1492 1492 1492 1493 1493 1493 1493 1494 1494 1494 1495 1495 1495 1495 1496 1496 1496 1496 1496 1496 1497 1497 1498 1497 1497 1497 1497 1496 1495
1489 1488 1487 1486 1486 1485 1486 1486 1486 1487 1487 1488 1488 1489 1490 1490 1490 1490 1491 1491 1491 1491 1492 1492 1492 1492 1493 1493 1493 1493 1493 1494 1493 1493 1494 1494 1494 1494 1494 1494 1493 1493 1492
1488 1487 1486 1485 1484 1484 1484 1484 1485 1485 1486 1486 1487 1487 1487 1488 1488 1488 1488 1489 1488 1489 1489 1489 1489 1490 1490 1490 1490 1490 1491 1491 1490 1490 1490 1491 1491 1491 1491 1490 1490 1489 1489
1488 1486 1485 1484 1484 1483 1483 1483 1483 1484 1484 1485 1485 1485 1486 1486 1486 1486 1486 1486 1486 1486 1486 1486 1487 1487 1487 1488 1488 1488 1488 1488 1488 1488 1487 1487 1488 1488 1487 1487 1486 1486 1485
1487 1486 1485 1484 1483 1482 1482 1482 1482 1482 1483 1483 1483 1483 1484 1484 1484 1484 1484 1484 1484 1484 1484 1484 1484 1484 1485 1485 1485 1485 1485 1485 1484 1484 1484 1484 1485 1485 1485 1484 1483 1482 1481
1486 1485 1484 1483 1482 1481 1481 1480 1480 1480 1481 1481 1481 1481 1481 1482 1482 1482 1482 1482 1481 1481 1481 1481 1481 1481 1481 1482 1482 1481 1481 1481 1481 1481 1481 1482 1482 1482 1482 1481 1480 1480 1478
1485 1484 1483 1482 1481 1480 1479 1479 1479 1479 1479 1479 1479 1479 1480 1479 1479 1479 1479 1479 1479 1478 1478 1478 1478 1478 1478 1479 1479 1478 1478 1478 1478 1478 1478 1478 1478 1478 1478 1477 1477 1476 1475
1484 1482 1481 1480 1479 1479 1478 1477 1477 1477 1477 1477 1477 1477 1477 1477 1477 1477 1477 1476 1476 1476 1475 1475 1475 1475 1475 1475 1475 1475 1475 1475 1475 1475 1475 1474 1474 1475 1475 1474 1472 1471 1471
1482 1481 1480 1479 1478 1477 1476 1476 1475 1475 1475 1475 1475 1475 1475 1475 1475 1475 1475 1474 1474 1473 1473 1472 1472 1472 1471 1472 1472 1472 1472 1471 1471 1471 1471 1471 1471 1471 1471 1470 1469 1468 1467
1480 1479 1478 1477 1476 1475 1475 1474 1474 1473 1473 1473 1473 1473 1473 1473 1473 1473 1472 1472 1472 1471 1470 1470 1469 1469 1469 1469 1469 1469 1469 1468 1468 1468 1468 1468 1468 1468 1467 1467 1465 1464 1463
1478 1477 1476 1475 1474 1474 1473 1472 1472 1472 1472 1471 1471 1471 1471 1471 1471 1470 1470 1470 1469 1468 1468 1467 1467 1466 1466 1466 1466 1466 1466 1465 1465 1465 1464 1464 1464 1464 1464 1463 1462 1461 1460
1476 1475 1474 1473 1473 1472 1472 1471 1470 1470 1470 1469 1469 1469 1469 1468 1468 1468 1468 1467 1467 1466 1466 1465 1464 1464 1464 1464 1464 1464 1463 1463 1462 1461 1461 1461 1461 1460 1460 1459 1458 1457 1456
1474 1474 1473 1472 1471 1471 1470 1469 1469 1468 1468 1467 1467 1467 1466 1466 1466 1465 1465 1465 1464 1464 1463 1463 1462 1461 1461 1461 1461 1461 1460 1460 1459 1458 1458 1458 1457 1457 1456 1456 1455 1454 1453
1473 1472 1471 1470 1469 1469 1469 1468 1467 1467 1466 1465 1465 1464 1464 1463 1463 1463 1463 1462 1462 1461 1461 1460 1460 1459 1459 1458 1458 1457 1457 1457 1456 1455 1455 1454 1454 1453 1453 1452 1452 1451 1450
1470 1470 1469 1468 1467 1467 1466 1466 1466 1465 1464 1463 1463 1462 1462 1461 1461 1461 1460 1460 1460 1460 1459 1458 1457 1456 1456 1456 1456 1455 1454 1454 1453 1452 1451 1451 1450 1450 1449 1449 1448 1448 1447
1468 1467 1467 1466 1465 1465 1464 1464 1464 1463 1462 1461 1461 1460 1460 1459 1459 1458 1458 1458 1458 1457 1456 1456 1455 1454 1454 1453 1453 1452 1452 1451 1450 1449 1448 1447 1447 1446 1446 1446 1445 1444 1444